CW1394 Weather Reports


Display with metric or nautical units.
time (UTC)temp
F
wind
direction
speed
MPH
gust
MPH
rain 1hr
in
rain 24hr
in
rain mn
in
humidity
%
barometer
mb
20260506133905 49 283 7.0 13.0 0.00 0.00 0.00 89 1019.5
20260506132905 49 279 7.0 13.0 0.00 0.00 0.00 89 1019.5
20260506132406 49 270 4.0 13.0 0.00 0.00 0.00 89 1019.5
20260506131905 49 267 2.0 14.0 0.00 0.00 0.00 89 1019.4
20260506131405 49 277 7.0 14.0 0.00 0.00 0.00 89 1019.4
20260506130905 49 282 3.0 10.0 0.00 0.00 0.00 89 1019.4
20260506130404 49 271 3.0 10.0 0.00 0.00 0.00 89 1019.4
20260506125905 49 296 4.0 10.0 0.00 0.00 0.00 89 1019.4
20260506125405 49 276 4.0 12.0 0.00 0.00 0.00 89 1019.4
20260506124405 49 272 4.0 8.0 0.00 0.00 0.00 88 1019.4
20260506123905 49 263 2.0 10.0 0.00 0.00 0.00 88 1019.4
20260506122405 49 278 7.0 16.0 0.00 0.00 0.00 88 1019.4
20260506121905 49 269 3.0 13.0 0.00 0.00 0.00 88 1019.3
20260506121405 49 278 5.0 13.0 0.00 0.00 0.00 88 1019.3
20260506120905 49 283 5.0 13.0 0.00 0.00 0.00 88 1019.3
20260506120405 49 286 2.0 16.0 0.00 0.00 0.00 88 1019.3
20260506115905 49 266 5.0 16.0 0.00 0.00 0.00 88 1019.3
20260506115405 49 276 6.0 16.0 0.00 0.00 0.00 88 1019.3
20260506114905 49 276 5.0 16.0 0.00 0.00 0.00 88 1019.3
20260506114406 49 274 6.0 17.0 0.00 0.00 0.00 88 1019.3
20260506113905 49 265 10.0 17.0 0.00 0.00 0.00 88 1019.2
20260506113405 49 281 10.0 16.0 0.00 0.00 0.00 88 1019.2
20260506112905 49 299 8.0 18.0 0.00 0.00 0.00 88 1019.1
20260506112405 49 275 9.0 18.0 0.00 0.00 0.00 88 1019.1
20260506111906 49 283 10.0 22.0 0.00 0.00 0.00 88 1018.9
20260506111406 50 280 9.0 22.0 0.00 0.00 0.00 88 1018.9
20260506110405 50 276 7.0 17.0 0.00 0.00 0.00 88 1018.8
20260506105905 50 260 5.0 16.0 0.00 0.00 0.00 88 1018.8
20260506102905 50 278 10.0 22.0 0.00 0.00 0.00 89 1018.4
20260506102405 50 277 10.0 22.0 0.00 0.00 0.00 89 1018.3
20260506101904 50 277 11.0 17.0 0.00 0.00 0.00 88 1018.3
20260506101405 50 279 8.0 17.0 0.00 0.00 0.00 89 1018.3
20260506100904 50 298 10.0 16.0 0.00 0.00 0.00 89 1018.3
20260506100404 50 272 9.0 16.0 0.00 0.00 0.00 89 1018.3
20260506095904 50 278 7.0 17.0 0.00 0.00 0.00 89 1018.3
20260506095406 50 275 7.0 17.0 0.00 0.00 0.00 89 1018.3
20260506094905 50 239 6.0 15.0 0.00 0.00 0.00 89 1018.3
20260506094405 50 274 6.0 18.0 0.00 0.00 0.00 89 1018.3
20260506093905 50 283 9.0 18.0 0.00 0.00 0.00 89 1018.3
20260506093404 50 278 9.0 16.0 0.00 0.00 0.00 88 1018.3
20260506092904 50 275 7.0 16.0 0.00 0.00 0.00 88 1018.3
20260506092405 50 275 6.0 13.0 0.00 0.00 0.00 88 1018.3
20260506091405 49 251 4.0 16.0 0.00 0.00 0.00 89 1018.3
20260506090904 49 263 5.0 17.0 0.00 0.00 0.00 89 1018.3
20260506090405 49 268 8.0 17.0 0.00 0.00 0.00 89 1018.3
20260506085905 49 269 7.0 16.0 0.00 0.00 0.00 89 1018.3
20260506084905 49 296 5.0 13.0 0.00 0.00 0.00 89 1018.3
20260506084406 49 275 7.0 15.0 0.00 0.00 0.00 89 1018.3
20260506083406 49 260 7.0 17.0 0.00 0.00 0.00 89 1018.3
20260506082905 49 273 7.0 16.0 0.00 0.00 0.00 89 1018.2
20260506082404 49 270 4.0 16.0 0.00 0.00 0.00 89 1018.2
20260506081904 49 244 6.0 18.0 0.00 0.00 0.00 89 1018.2
20260506080905 50 285 8.0 21.0 0.00 0.00 0.00 89 1017.8
20260506080405 50 265 5.0 15.0 0.00 0.00 0.00 89 1017.8
20260506073404 50 268 7.0 16.0 0.00 0.00 0.00 90 1017.7
20260506072904 49 282 5.0 16.0 0.00 0.00 0.00 90 1017.7
20260506072404 49 287 9.0 16.0 0.00 0.00 0.00 90 1017.2
20260506071904 49 274 5.0 15.0 0.00 0.00 0.00 90 1017.2
20260506070905 49 254 5.0 17.0 0.00 0.00 0.00 90 1017.2
20260506070406 49 253 6.0 17.0 0.00 0.00 0.00 90 1017.2
20260506062405 49 264 6.0 15.0 0.00 0.00 0.00 90 1017.2
20260506060905 49 273 6.0 22.0 0.00 0.00 0.00 90 1017.2
20260506051405 50 253 8.0 20.0 0.00 0.00 0.00 89 1017.2
20260506050905 50 265 5.0 22.0 0.00 0.00 0.00 89 1017.2
20260506050407 50 274 7.0 22.0 0.00 0.00 0.00 89 1017.2
20260506044906 50 232 6.0 20.0 0.00 0.00 0.00 89 1017.0
20260506044405 50 233 5.0 17.0 0.00 0.00 0.00 89 1017.0
20260506043904 50 217 9.0 18.0 0.00 0.00 0.00 89 1017.0
20260506043407 50 241 7.0 18.0 0.00 0.00 0.00 89 1016.1
20260506042905 50 232 6.0 17.0 0.00 0.00 0.00 89 1016.1
20260506042404 50 247 6.0 17.0 0.00 0.00 0.00 88 1016.1
20260506041407 50 255 6.0 15.0 0.00 0.00 0.00 88 1016.1
20260506040904 50 228 6.0 17.0 0.00 0.00 0.00 88 1016.1
20260506040407 50 249 4.0 17.0 0.00 0.00 0.00 87 1016.1
20260506035904 50 244 7.0 16.0 0.00 0.00 0.00 87 1016.1
20260506035408 50 221 6.0 15.0 0.00 0.00 0.00 87 1016.1
20260506034906 50 225 9.0 15.0 0.00 0.00 0.00 87 1016.1
20260506034405 50 243 6.0 14.0 0.00 0.00 0.00 86 1016.1
20260506033906 51 245 5.0 14.0 0.00 0.00 0.00 86 1016.1
20260506033406 51 238 5.0 14.0 0.00 0.00 0.00 86 1016.1
20260506032904 51 224 5.0 10.0 0.00 0.00 0.00 85 1016.0
20260506032405 51 233 5.0 18.0 0.00 0.00 0.00 85 1016.0
20260506031906 51 251 6.0 18.0 0.00 0.00 0.00 85 1016.1
20260506030407 52 262 7.0 15.0 0.00 0.00 0.00 83 1016.1
20260506025405 52 259 4.0 14.0 0.00 0.00 0.00 83 1016.1
20260506024906 53 255 5.0 14.0 0.00 0.00 0.00 83 1016.1
20260506024405 53 265 5.0 14.0 0.00 0.00 0.00 83 1016.1
20260506023906 53 242 5.0 12.0 0.00 0.00 0.00 83 1016.1
20260506023405 53 250 4.0 17.0 0.00 0.00 0.00 83 1016.1
20260506022906 53 256 5.0 17.0 0.00 0.00 0.00 83 1016.1
20260506022405 53 210 5.0 16.0 0.00 0.00 0.00 83 1016.1
20260506021905 53 202 6.0 16.0 0.00 0.00 0.00 82 1016.1
20260506021404 53 261 6.0 16.0 0.00 0.00 0.00 82 1016.1
20260506020905 53 225 8.0 17.0 0.00 0.00 0.00 82 1016.1
20260506020405 53 279 5.0 17.0 0.00 0.00 0.00 82 1016.1
20260506015904 53 238 5.0 17.0 0.00 0.00 0.00 82 1016.1
20260506015404 53 236 5.0 17.0 0.00 0.00 0.00 81 1016.1
20260506014906 53 256 6.0 28.0 0.00 0.00 0.00 81 1016.1
20260506014404 54 243 6.0 28.0 0.00 0.00 0.00 80 1016.1
20260506013906 54 253 7.0 26.0 0.00 0.00 0.00 80 1016.1
20260506012405 54 250 6.0 17.0 0.00 0.00 0.00 79 1016.1
20260506011905 55 252 5.0 17.0 0.00 0.00 0.00 78 1016.1
20260506011405 55 257 6.0 14.0 0.00 0.00 0.00 78 1016.2
20260506010905 55 264 6.0 14.0 0.00 0.00 0.00 77 1016.2
20260506010405 56 283 5.0 16.0 0.00 0.00 0.00 76 1016.2
20260506005905 56 221 7.0 16.0 0.00 0.00 0.00 76 1016.2
20260506004905 57 258 6.0 18.0 0.00 0.00 0.00 76 1016.2
20260506004405 57 242 5.0 14.0 0.00 0.00 0.00 76 1016.2
20260506003906 57 261 3.0 14.0 0.00 0.00 0.00 75 1016.2
20260506003406 57 283 5.0 15.0 0.00 0.00 0.00 75 1016.2
20260506002405 58 266 3.0 12.0 0.00 0.00 0.00 74 1016.2
20260506001905 58 240 6.0 10.0 0.00 0.00 0.00 74 1016.2
20260506001405 58 279 6.0 16.0 0.00 0.00 0.00 74 1016.2
20260506000904 58 271 7.0 16.0 0.00 0.00 0.00 73 1016.2
20260505235906 59 281 5.0 14.0 0.00 0.00 0.00 72 1016.7
20260505235407 59 277 3.0 14.0 0.00 0.00 0.00 72 1016.7
20260505234404 59 275 5.0 14.0 0.00 0.00 0.00 71 1016.7
20260505233906 60 246 5.0 15.0 0.00 0.00 0.00 70 1016.6
20260505233405 61 236 5.0 15.0 0.00 0.00 0.00 69 1016.7
20260505232904 61 251 3.0 13.0 0.00 0.00 0.00 70 1016.7
20260505232406 61 290 5.0 13.0 0.00 0.00 0.00 68 1016.8
20260505231405 62 277 2.0 10.0 0.00 0.00 0.00 69 1017.0
20260505230905 62 298 4.0 12.0 0.00 0.00 0.00 68 1017.0
20260505230404 62 248 4.0 14.0 0.00 0.00 0.00 68 1017.0
20260505225405 62 294 5.0 14.0 0.00 0.00 0.00 68 1017.0
20260505224404 63 288 5.0 10.0 0.00 0.00 0.00 69 1017.1
20260505223905 62 297 2.0 8.0 0.00 0.00 0.00 68 1017.1
20260505222905 63 288 3.0 13.0 0.00 0.00 0.00 68 1017.2
20260505222404 63 306 4.0 14.0 0.00 0.00 0.00 67 1017.2
20260505221405 64 298 5.0 12.0 0.00 0.00 0.00 67 1017.2
20260505220906 64 291 5.0 10.0 0.00 0.00 0.00 67 1017.3
20260505220405 63 292 5.0 12.0 0.00 0.00 0.00 68 1017.3
20260505215904 63 295 6.0 12.0 0.00 0.00 0.00 67 1017.3
20260505214904 63 289 5.0 12.0 0.00 0.00 0.00 68 1017.5
20260505214405 63 293 5.0 12.0 0.00 0.00 0.00 70 1017.5
20260505213904 63 284 5.0 10.0 0.00 0.00 0.00 69 1017.5
20260505213405 62 291 5.0 10.0 0.00 0.00 0.00 71 1017.5
20260505212904 62 293 5.0 10.0 0.00 0.00 0.00 71 1017.5
20260505212404 61 296 5.0 12.0 0.00 0.00 0.00 74 1017.5
20260505211905 61 287 6.0 12.0 0.00 0.00 0.00 72 1017.4
20260505211405 61 293 6.0 12.0 0.00 0.00 0.00 75 1017.4
20260505210906 60 286 6.0 12.0 0.00 0.00 0.00 74 1017.4
20260505210404 60 288 6.0 13.0 0.00 0.00 0.00 73 1017.4
20260505205905 60 290 7.0 13.0 0.00 0.00 0.00 73 1017.4
20260505205404 60 288 6.0 12.0 0.00 0.00 0.00 73 1017.4
20260505204905 60 291 5.0 10.0 0.00 0.00 0.00 76 1017.6
20260505204405 60 286 5.0 10.0 0.00 0.00 0.00 75 1017.6
20260505203405 59 291 5.0 10.0 0.00 0.00 0.00 74 1017.6
20260505202904 59 286 5.0 8.0 0.00 0.00 0.00 75 1017.6
20260505202405 59 292 5.0 8.0 0.00 0.00 0.00 74 1017.6
20260505201904 59 291 5.0 8.0 0.00 0.00 0.00 75 1017.6
20260505200905 59 289 5.0 8.0 0.00 0.00 0.00 76 1017.6
20260505200404 59 291 5.0 8.0 0.00 0.00 0.00 76 1017.6
20260505195904 59 287 5.0 8.0 0.00 0.00 0.00 77 1017.5
20260505195404 58 295 4.0 7.0 0.00 0.00 0.00 78 1017.5
20260505194904 58 305 4.0 8.0 0.00 0.00 0.00 77 1017.5
20260505194405 58 264 5.0 10.0 0.00 0.00 0.00 77 1017.5
20260505193906 58 281 5.0 10.0 0.00 0.00 0.00 77 1017.5
20260505193405 58 289 5.0 8.0 0.00 0.00 0.00 78 1017.5
20260505192905 58 285 5.0 8.0 0.00 0.00 0.00 78 1017.5
20260505192404 58 288 5.0 8.0 0.00 0.00 0.00 78 1017.5
20260505191904 58 282 5.0 8.0 0.00 0.00 0.00 78 1017.5
20260505191404 58 284 5.0 8.0 0.00 0.00 0.00 79 1017.5
20260505190904 57 286 5.0 7.0 0.00 0.00 0.00 80 1017.4
20260505185904 57 292 5.0 8.0 0.00 0.00 0.00 82 1017.4
20260505185406 56 291 5.0 8.0 0.00 0.00 0.00 82 1017.3
20260505184905 56 286 5.0 10.0 0.00 0.00 0.00 83 1017.3
20260505183905 55 292 6.0 10.0 0.00 0.00 0.00 82 1017.4
20260505182906 55 293 5.0 8.0 0.00 0.00 0.00 83 1017.2
20260505181905 55 287 4.0 8.0 0.00 0.00 0.00 84 1017.2
20260505181404 55 302 3.0 8.0 0.00 0.00 0.00 84 1017.2
20260505180404 55 281 5.0 8.0 0.00 0.00 0.00 84 1017.2
20260505175904 54 285 3.0 8.0 0.00 0.00 0.00 84 1017.2
20260505175405 54 293 5.0 8.0 0.00 0.00 0.00 85 1017.2
20260505174905 54 286 4.0 8.0 0.00 0.00 0.00 85 1017.2
20260505174405 54 273 5.0 8.0 0.00 0.00 0.00 85 1017.1
20260505173905 54 276 3.0 7.0 0.00 0.00 0.00 86 1017.1
20260505173405 54 290 3.0 6.0 0.00 0.00 0.00 86 1017.0
20260505172905 54 290 3.0 6.0 0.00 0.00 0.00 87 1016.9
20260505172406 53 292 3.0 6.0 0.00 0.00 0.00 87 1016.9
20260505171906 53 293 3.0 6.0 0.00 0.00 0.00 87 1016.9
20260505171404 53 293 3.0 5.0 0.00 0.00 0.00 88 1017.0
20260505170904 53 294 3.0 5.0 0.00 0.00 0.00 88 1016.9
20260505170404 53 294 3.0 6.0 0.00 0.00 0.00 89 1016.9
20260505165906 53 296 3.0 6.0 0.00 0.00 0.00 89 1016.9
20260505165404 53 279 3.0 6.0 0.00 0.00 0.00 89 1016.9
20260505164907 52 285 3.0 6.0 0.00 0.00 0.00 90 1016.9
20260505164404 52 294 3.0 6.0 0.00 0.00 0.00 90 1016.9
20260505163905 52 290 3.0 7.0 0.00 0.00 0.00 90 1016.9
20260505163407 52 290 3.0 7.0 0.00 0.00 0.00 91 1016.9
20260505162906 52 298 3.0 7.0 0.00 0.00 0.00 91 1016.9
20260505162405 52 279 3.0 7.0 0.00 0.00 0.00 91 1016.9
20260505161405 52 283 3.0 6.0 0.00 0.00 0.00 91 1016.8
20260505160406 52 286 3.0 7.0 0.00 0.00 0.00 91 1016.7
20260505152904 51 290 3.0 7.0 0.00 0.00 0.00 91 1016.6
20260505152405 51 276 4.0 7.0 0.00 0.00 0.00 91 1016.4
20260505151905 51 293 3.0 7.0 0.00 0.00 0.00 91 1016.4
20260505151405 51 285 2.0 6.0 0.00 0.00 0.00 91 1016.4
20260505150905 51 284 2.0 6.0 0.00 0.00 0.00 91 1016.4
20260505140405 50 282 1.0 2.0 0.00 0.00 0.00 91 1015.6